Location: Quedlinburg
(51.7921°N, 11.1414°E)
Time: 09:52:02
(UTC+02:00)

RS-44 - Pass Details

Date: 19 March 2026
Orbit: 1175 x 1510 km, 82.5° (Epoch: 17 April)

Event Time Altitude Azimuth Distance (km) Brightness Sun altitude
Rises 01:56:12 0° 349° (NNW) 4,405 ? -35.2°
Reaches altitude 10° 01:58:58 10° 351° (N) 3,471 ? -35.0°
Maximum altitude 02:07:21 73° 77° (ENE) 1,515 ? -34.4°
Enters shadow 02:09:07 59° 136° (SE) 1,665 ? -34.2°
